{"data":{"norad_id":69612,"epoch":"2026-09-20T04:00:03.000096Z","epoch_age_seconds":57730,"freshness":"FRESH","line1":"1 69612U 26140W   26263.16670139 -.00036966  00000+0 -36597-2 0  9992","line2":"2 69612  51.8987 303.5061 0003169 213.8424 294.5003 14.91394533  4565","mean_motion":14.91394533,"eccentricity":0.0003169,"inclination_deg":51.8987,"raan_deg":303.5061,"arg_perigee_deg":213.8424,"mean_anomaly_deg":294.5003,"bstar":-0.0036597,"rev_number":456,"period_min":96.553927759369,"perigee_km":591.37698283315,"apogee_km":595.79566107461,"semimajor_km":6971.7233219539,"source":"CELESTRAK","updated_at":"2026-09-20T09:00:25.004044Z"}}